Location: Jackson
(42.2460°N, 84.4010°W)
Time: 18:44:08
(UTC-04:00)

Courier 1B Rocket - Pass Details

Date: 09 February 2026
Orbit: 920 x 1201 km, 28.2° (Epoch: 12 March)

Event Time Altitude Azimuth Distance (km) Brightness Sun altitude
Rises 23:29:25 0° 231° (SW) 3,753 - -56.9°
Reaches altitude 10° 23:32:38 10° 217° (SW) 2,852 - -57.3°
Maximum altitude 23:37:54 23° 168° (SSE) 2,126 - -57.9°
Drops below altitude 10° 23:43:27 10° 119° (ESE) 3,012 - -58.4°
Sets 23:46:56 0° 106° (ESE) 4,015 - -58.8°
